Hourly Data Report for October 30, 2016

All times are specified in Local Standard Time (LST). Add 1 hour to adjust for Daylight Saving Time where and when it is observed.

TORONTO INTL A
ONTARIO

43°40'36.000" N
79°37'50.000" W
173.40 m
6158731
71624
YYZ

Download Data

Hourly Data (October 2016)
Hourly Data Report for October 30, 2016
Temp Definition
°C
Dew Point Temp Definition
°C
Rel Hum Definition
%
Wind Dir Definition
10's deg

Wind Spd Definition
km/h
Visibility Definition
km
Stn Press Definition
kPa
Hmdx Definition


Wind Chill Definition


Weather Definition


TIME
00:00 Legend Double Dagger 11.2 7.4 77 30 14 24.1 99.32     LegendNANA
01:00 Legend Double Dagger 11.0 7.5 79 29 10 24.1 99.35     Cloudy
02:00 Legend Double Dagger 11.4 7.5 77 31 16 24.1 99.31     LegendNANA
03:00 Legend Double Dagger 10.1 7.9 86 35 13 24.1 99.39     Rain Showers
04:00 Legend Double Dagger 9.2 7.3 88 1 15 24.1 99.37     Cloudy
05:00 Legend Double Dagger 8.9 7.0 88 35 14 24.1 99.38     LegendNANA
06:00 Legend Double Dagger 8.6 6.7 88 36 18 24.1 99.38     LegendNANA
07:00 Legend Double Dagger 8.2 6.3 88 36 16 19.3 99.43     Cloudy
08:00 Legend Double Dagger 8.1 5.7 85 35 20 24.1 99.51     LegendNANA
09:00 Legend Double Dagger 7.8 5.8 87 35 20 16.1 99.50     Rain
10:00 Legend Double Dagger 7.2 5.2 87 35 25 24.1 99.52     Rain
11:00 Legend Double Dagger 6.6 4.8 88 36 25 24.1 99.56     LegendNANA
12:00 Legend Double Dagger 6.4 3.9 84 35 27 24.1 99.57     LegendNANA
13:00 Legend Double Dagger 6.8 3.1 77 34 30 24.1 99.57     Cloudy
14:00 Legend Double Dagger 6.9 2.2 72 33 33 24.1 99.60     LegendNANA
15:00 Legend Double Dagger 7.3 1.8 68 35 25 24.1 99.68     LegendNANA
16:00 Legend Double Dagger 7.1 2.2 71 34 26 24.1 99.77     Cloudy
17:00 Legend Double Dagger 6.8 1.9 71 34 18 24.1 99.85     LegendNANA
18:00 Legend Double Dagger 6.6 0.9 67 34 20 24.1 99.93     LegendNANA
19:00 Legend Double Dagger 6.4 0.5 66 35 19 24.1 100.00     Mostly Cloudy
20:00 Legend Double Dagger 5.6 1.2 73 32 18 24.1 100.08     LegendNANA
21:00 Legend Double Dagger 5.0 1.0 75 34 16 24.1 100.11     LegendNANA
22:00 Legend Double Dagger 4.3 0.6 77 33 11 24.1 100.14     Clear
23:00 Legend Double Dagger 3.9 0.4 78 34 9 24.1 100.18     LegendNANA

Notes on Data Quality.

Legend

  • E = Estimated
  • M = Missing
  • NA = Not Available
  • ‡ = Partner data that is not subject to review by the National Climate Archives
Date modified: